Time,TemperatureF,DewpointF,PressureIn,WindDirection,WindDirectionDegrees,WindSpeedMPH,WindSpeedGustMPH,Humidity,HourlyPrecipIn,Conditions,Clouds,dailyrainin,SoftwareType,DateUTC
2013-02-19 00:02:00,48.0,45.0,30.20,ESE,112,0.0,0.0,91,0.00,,,0.00,,2013-02-19 05:02:00,
2013-02-19 00:13:00,48.0,45.0,30.20,ESE,112,0.0,0.0,91,0.00,,,0.00,,2013-02-19 05:13:00,
2013-02-19 00:22:00,47.0,44.0,30.19,ESE,111,0.0,0.0,90,0.00,,,0.00,,2013-02-19 05:22:00,
2013-02-19 00:32:00,46.0,44.0,30.19,ESE,111,0.0,0.0,92,0.00,,,0.00,,2013-02-19 05:32:00,
2013-02-19 00:43:00,46.0,44.0,30.19,ESE,111,0.0,0.0,92,0.00,,,0.00,,2013-02-19 05:43:00,
2013-02-19 00:52:00,47.0,45.0,30.19,ESE,111,0.0,0.0,93,0.00,,,0.00,,2013-02-19 05:52:00,
2013-02-19 01:02:00,47.0,45.0,30.19,ESE,112,0.0,0.0,93,0.00,,,0.00,,2013-02-19 06:02:00,
2013-02-19 01:12:00,47.0,45.0,30.19,ESE,112,0.0,0.0,93,0.00,,,0.00,,2013-02-19 06:12:00,
2013-02-19 01:22:00,46.0,44.0,30.19,ESE,112,0.0,0.0,93,0.00,,,0.00,,2013-02-19 06:22:00,
2013-02-19 01:32:00,46.0,44.0,30.19,ESE,111,0.0,0.0,94,0.00,,,0.00,,2013-02-19 06:32:00,
2013-02-19 01:42:00,46.0,44.0,30.19,ESE,111,0.0,0.0,94,0.00,,,0.00,,2013-02-19 06:42:00,
2013-02-19 01:53:00,46.0,44.0,30.19,ESE,112,0.0,0.0,94,0.00,,,0.00,,2013-02-19 06:53:00,
2013-02-19 02:01:00,45.0,43.0,30.19,ESE,111,0.0,0.0,93,0.00,,,0.00,,2013-02-19 07:01:00,
2013-02-19 02:12:00,45.0,43.0,30.19,ESE,111,0.0,0.0,93,0.00,,,0.00,,2013-02-19 07:12:00,
2013-02-19 02:22:00,45.0,43.0,30.19,ESE,112,0.0,0.0,94,0.00,,,0.00,,2013-02-19 07:22:00,
2013-02-19 02:32:00,45.0,43.0,30.19,ESE,112,0.0,0.0,94,0.00,,,0.00,,2013-02-19 07:32:00,
2013-02-19 02:42:00,45.0,43.0,30.19,ESE,112,0.0,0.0,94,0.00,,,0.00,,2013-02-19 07:42:00,
2013-02-19 02:52:00,44.0,42.0,30.18,ESE,111,0.0,0.0,94,0.00,,,0.00,,2013-02-19 07:52:00,
2013-02-19 03:02:00,44.0,42.0,30.17,ESE,111,0.0,0.0,94,0.00,,,0.00,,2013-02-19 08:02:00,
2013-02-19 03:11:00,44.0,42.0,30.17,ESE,111,0.0,0.0,94,0.00,,,0.00,,2013-02-19 08:11:00,
2013-02-19 03:21:00,45.0,43.0,30.17,ESE,112,0.0,0.0,94,0.00,,,0.00,,2013-02-19 08:21:00,
2013-02-19 03:32:00,45.0,43.0,30.16,ESE,112,0.0,0.0,94,0.00,,,0.00,,2013-02-19 08:32:00,
2013-02-19 03:42:00,45.0,43.0,30.16,ESE,112,0.0,0.0,94,0.00,,,0.00,,2013-02-19 08:42:00,
2013-02-19 03:52:00,45.0,43.0,30.16,ESE,111,0.0,0.0,94,0.00,,,0.00,,2013-02-19 08:52:00,
2013-02-19 04:02:00,44.0,42.0,30.15,ESE,111,0.0,0.0,94,0.00,,,0.00,,2013-02-19 09:02:00,
2013-02-19 04:11:00,44.0,42.0,30.15,ESE,111,0.0,0.0,94,0.00,,,0.00,,2013-02-19 09:11:00,
2013-02-19 04:22:00,44.0,42.0,30.15,ESE,112,0.0,0.0,94,0.00,,,0.00,,2013-02-19 09:22:00,
2013-02-19 04:32:00,45.0,43.0,30.15,ESE,112,0.0,0.0,94,0.00,,,0.00,,2013-02-19 09:32:00,
2013-02-19 04:42:00,45.0,43.0,30.15,ESE,112,0.0,0.0,94,0.00,,,0.00,,2013-02-19 09:42:00,
2013-02-19 04:52:00,44.0,42.0,30.14,ESE,111,0.0,0.0,94,0.00,,,0.00,,2013-02-19 09:52:00,
2013-02-19 05:02:00,44.0,42.0,30.14,ESE,112,0.0,0.0,94,0.00,,,0.00,,2013-02-19 10:02:00,
2013-02-19 05:11:00,44.0,42.0,30.14,ESE,112,0.0,0.0,94,0.00,,,0.00,,2013-02-19 10:11:00,
2013-02-19 05:22:00,44.0,42.0,30.14,ESE,111,0.0,0.0,94,0.00,,,0.00,,2013-02-19 10:22:00,
2013-02-19 05:32:00,44.0,42.0,30.15,ESE,111,0.0,0.0,94,0.00,,,0.00,,2013-02-19 10:32:00,
2013-02-19 05:42:00,44.0,42.0,30.15,ESE,111,0.0,0.0,94,0.00,,,0.00,,2013-02-19 10:42:00,
2013-02-19 05:52:00,45.0,43.0,30.14,ESE,112,0.0,1.0,94,0.00,,,0.00,,2013-02-19 10:52:00,
2013-02-19 06:01:00,45.0,43.0,30.14,ESE,112,0.0,0.0,94,0.00,,,0.00,,2013-02-19 11:01:00,
2013-02-19 06:11:00,45.0,43.0,30.14,ESE,112,0.0,0.0,94,0.00,,,0.00,,2013-02-19 11:11:00,
2013-02-19 06:22:00,45.0,43.0,30.15,ESE,112,0.0,0.0,94,0.00,,,0.00,,2013-02-19 11:22:00,
2013-02-19 06:32:00,46.0,44.0,30.14,ESE,112,0.0,0.0,94,0.00,,,0.00,,2013-02-19 11:32:00,
2013-02-19 06:42:00,46.0,44.0,30.14,ESE,112,0.0,0.0,94,0.00,,,0.00,,2013-02-19 11:42:00,
2013-02-19 06:52:00,45.0,43.0,30.14,ESE,112,0.0,0.0,94,0.00,,,0.00,,2013-02-19 11:52:00,
2013-02-19 07:02:00,45.0,43.0,30.14,ESE,112,0.0,0.0,94,0.00,,,0.00,,2013-02-19 12:02:00,
2013-02-19 07:12:00,45.0,43.0,30.14,ESE,112,0.0,0.0,94,0.00,,,0.00,,2013-02-19 12:12:00,
2013-02-19 07:22:00,46.0,45.0,30.14,ESE,112,0.0,1.0,95,0.00,,,0.00,,2013-02-19 12:22:00,
2013-02-19 07:32:00,46.0,44.0,30.14,ESE,112,0.0,0.0,94,0.00,,,0.00,,2013-02-19 12:32:00,
2013-02-19 07:42:00,46.0,44.0,30.14,ESE,112,0.0,0.0,94,0.00,,,0.00,,2013-02-19 12:42:00,
2013-02-19 07:52:00,46.0,45.0,30.14,ESE,111,0.0,0.0,95,0.00,,,0.00,,2013-02-19 12:52:00,
2013-02-19 08:02:00,48.0,46.0,30.14,ESE,112,0.0,0.0,94,0.00,,,0.00,,2013-02-19 13:02:00,
2013-02-19 08:11:00,48.0,46.0,30.14,ESE,112,0.0,0.0,94,0.00,,,0.00,,2013-02-19 13:11:00,
2013-02-19 08:22:00,50.0,49.0,30.14,ESE,112,0.0,0.0,95,0.00,,,0.00,,2013-02-19 13:22:00,
2013-02-19 08:32:00,53.0,51.0,30.15,ESE,112,0.0,0.0,94,0.00,,,0.00,,2013-02-19 13:32:00,
2013-02-19 08:42:00,53.0,51.0,30.15,ESE,112,0.0,0.0,94,0.00,,,0.00,,2013-02-19 13:42:00,
2013-02-19 08:52:00,58.0,54.0,30.16,East,98,0.0,1.0,85,0.00,,,0.00,,2013-02-19 13:52:00,
2013-02-19 09:02:00,61.0,55.0,30.17,East,93,0.0,1.0,81,0.00,,,0.00,,2013-02-19 14:02:00,
2013-02-19 09:12:00,61.0,55.0,30.17,East,93,0.0,1.0,81,0.00,,,0.00,,2013-02-19 14:12:00,
2013-02-19 09:22:00,65.0,56.0,30.16,East,81,1.0,4.0,73,0.00,,,0.00,,2013-02-19 14:22:00,
2013-02-19 09:33:00,67.0,57.0,30.16,East,98,1.0,7.0,71,0.00,,,0.00,,2013-02-19 14:33:00,
2013-02-19 09:52:00,69.0,58.0,30.16,East,83,2.0,6.0,69,0.00,,,0.00,,2013-02-19 14:52:00,
2013-02-19 10:02:00,70.0,59.0,30.16,East,86,3.0,7.0,67,0.00,,,0.00,,2013-02-19 15:02:00,
2013-02-19 10:21:00,71.0,58.0,30.16,East,79,4.0,9.0,64,0.00,,,0.00,,2013-02-19 15:21:00,
2013-02-19 10:32:00,72.0,58.0,30.16,East,79,4.0,12.0,61,0.00,,,0.00,,2013-02-19 15:32:00,
2013-02-19 10:42:00,72.0,58.0,30.16,East,79,4.0,12.0,61,0.00,,,0.00,,2013-02-19 15:42:00,
2013-02-19 10:52:00,73.0,58.0,30.16,ENE,71,3.0,7.0,59,0.00,,,0.00,,2013-02-19 15:52:00,
2013-02-19 11:02:00,74.0,57.0,30.16,East,96,3.0,8.0,55,0.00,,,0.00,,2013-02-19 16:02:00,
2013-02-19 11:11:00,74.0,57.0,30.16,East,96,3.0,8.0,55,0.00,,,0.00,,2013-02-19 16:11:00,
2013-02-19 11:22:00,74.0,55.0,30.15,ESE,115,3.0,10.0,52,0.00,,,0.00,,2013-02-19 16:22:00,
2013-02-19 11:32:00,76.0,54.0,30.15,East,94,3.0,9.0,47,0.00,,,0.00,,2013-02-19 16:32:00,
2013-02-19 11:42:00,76.0,54.0,30.15,East,94,3.0,9.0,47,0.00,,,0.00,,2013-02-19 16:42:00,
2013-02-19 11:52:00,76.0,55.0,30.14,ENE,77,4.0,10.0,48,0.00,,,0.00,,2013-02-19 16:52:00,
2013-02-19 12:01:00,77.0,54.0,30.14,East,85,3.0,9.0,45,0.00,,,0.00,,2013-02-19 17:01:00,
2013-02-19 12:21:00,78.0,56.0,30.13,East,80,3.0,8.0,46,0.00,,,0.00,,2013-02-19 17:21:00,
2013-02-19 12:32:00,78.0,54.0,30.13,East,83,3.0,7.0,44,0.00,,,0.00,,2013-02-19 17:32:00,
2013-02-19 12:42:00,78.0,54.0,30.13,East,83,3.0,7.0,44,0.00,,,0.00,,2013-02-19 17:42:00,
2013-02-19 12:52:00,78.0,55.0,30.12,NNE,24,4.0,12.0,45,0.00,,,0.00,,2013-02-19 17:52:00,
2013-02-19 13:02:00,78.0,55.0,30.11,SSE,163,3.0,12.0,45,0.00,,,0.00,,2013-02-19 18:02:00,
2013-02-19 13:11:00,78.0,55.0,30.11,SSE,163,3.0,12.0,45,0.00,,,0.00,,2013-02-19 18:11:00,
2013-02-19 13:21:00,79.0,55.0,30.09,ESE,119,3.0,10.0,43,0.00,,,0.00,,2013-02-19 18:21:00,
2013-02-19 13:32:00,80.0,55.0,30.08,East,101,2.0,8.0,42,0.00,,,0.00,,2013-02-19 18:32:00,
2013-02-19 13:52:00,79.0,54.0,30.07,East,96,3.0,12.0,42,0.00,,,0.00,,2013-02-19 18:52:00,
2013-02-19 14:01:00,78.0,54.0,30.07,East,93,3.0,10.0,44,0.00,,,0.00,,2013-02-19 19:01:00,
2013-02-19 14:11:00,78.0,54.0,30.07,East,93,3.0,10.0,44,0.00,,,0.00,,2013-02-19 19:11:00,
2013-02-19 14:21:00,79.0,55.0,30.06,East,84,3.0,9.0,44,0.00,,,0.00,,2013-02-19 19:21:00,
2013-02-19 14:32:00,79.0,55.0,30.06,East,84,3.0,9.0,44,0.00,,,0.00,,2013-02-19 19:32:00,
2013-02-19 14:42:00,79.0,55.0,30.06,East,84,3.0,9.0,44,0.00,,,0.00,,2013-02-19 19:42:00,
2013-02-19 14:52:00,79.0,55.0,30.05,East,94,3.0,8.0,43,0.00,,,0.00,,2013-02-19 19:52:00,
2013-02-19 15:02:00,80.0,55.0,30.04,East,83,3.0,13.0,43,0.00,,,0.00,,2013-02-19 20:02:00,
2013-02-19 15:12:00,80.0,55.0,30.04,East,83,3.0,13.0,43,0.00,,,0.00,,2013-02-19 20:12:00,
2013-02-19 15:22:00,81.0,56.0,30.04,ESE,114,3.0,8.0,42,0.00,,,0.00,,2013-02-19 20:22:00,
2013-02-19 15:32:00,80.0,55.0,30.04,ESE,118,3.0,8.0,43,0.00,,,0.00,,2013-02-19 20:32:00,
2013-02-19 15:42:00,80.0,55.0,30.04,ESE,118,3.0,8.0,43,0.00,,,0.00,,2013-02-19 20:42:00,
2013-02-19 15:52:00,78.0,54.0,30.03,NE,44,2.0,5.0,44,0.00,,,0.00,,2013-02-19 20:52:00,
2013-02-19 16:02:00,80.0,56.0,30.03,ESE,118,3.0,10.0,44,0.00,,,0.00,,2013-02-19 21:02:00,
2013-02-19 16:11:00,80.0,56.0,30.03,ESE,118,3.0,10.0,44,0.00,,,0.00,,2013-02-19 21:11:00,
2013-02-19 16:21:00,79.0,55.0,30.02,ENE,68,2.0,8.0,43,0.00,,,0.00,,2013-02-19 21:21:00,
2013-02-19 16:32:00,79.0,55.0,30.02,East,80,2.0,7.0,43,0.00,,,0.00,,2013-02-19 21:32:00,
2013-02-19 16:42:00,79.0,55.0,30.02,East,80,2.0,7.0,43,0.00,,,0.00,,2013-02-19 21:42:00,
2013-02-19 16:51:00,79.0,55.0,30.02,East,91,2.0,7.0,44,0.00,,,0.00,,2013-02-19 21:51:00,
2013-02-19 17:02:00,78.0,54.0,30.02,ENE,74,2.0,7.0,44,0.00,,,0.00,,2013-02-19 22:02:00,
2013-02-19 17:11:00,78.0,54.0,30.02,ENE,74,2.0,7.0,44,0.00,,,0.00,,2013-02-19 22:11:00,
2013-02-19 17:21:00,78.0,55.0,30.02,ESE,115,3.0,9.0,45,0.00,,,0.00,,2013-02-19 22:21:00,
2013-02-19 17:32:00,76.0,54.0,30.02,East,86,3.0,10.0,47,0.00,,,0.00,,2013-02-19 22:32:00,
2013-02-19 17:40:00,75.0,54.0,30.03,ESE,117,2.0,7.0,48,0.00,,,0.00,,2013-02-19 22:40:00,
2013-02-19 17:42:00,76.0,54.0,30.02,East,86,3.0,10.0,47,0.00,,,0.00,,2013-02-19 22:42:00,
2013-02-19 17:52:00,76.0,54.0,30.02,East,91,2.0,6.0,47,0.00,,,0.00,,2013-02-19 22:52:00,
2013-02-19 18:01:00,75.0,54.0,30.03,ESE,117,2.0,7.0,48,0.00,,,0.00,,2013-02-19 23:01:00,
2013-02-19 18:11:00,75.0,54.0,30.03,ESE,117,2.0,7.0,48,0.00,,,0.00,,2013-02-19 23:11:00,
2013-02-19 18:21:00,75.0,54.0,30.03,ESE,117,2.0,7.0,48,0.00,,,0.00,,2013-02-19 23:21:00,
2013-02-19 18:32:00,75.0,54.0,30.03,ESE,117,2.0,7.0,48,0.00,,,0.00,,2013-02-19 23:32:00,
2013-02-19 19:32:00,66.0,54.0,30.05,ESE,109,0.0,0.0,65,0.00,,,0.00,,2013-02-20 00:32:00,
2013-02-19 19:42:00,66.0,54.0,30.05,ESE,109,0.0,0.0,65,0.00,,,0.00,,2013-02-20 00:42:00,
2013-02-19 19:52:00,66.0,54.0,30.05,ESE,109,0.0,0.0,66,0.00,,,0.00,,2013-02-20 00:52:00,
2013-02-19 20:02:00,64.0,54.0,30.05,ESE,108,0.0,0.0,71,0.00,,,0.00,,2013-02-20 01:02:00,
2013-02-19 20:21:00,63.0,54.0,30.06,ESE,109,0.0,0.0,73,0.00,,,0.00,,2013-02-20 01:21:00,
2013-02-19 20:32:00,63.0,55.0,30.06,ESE,108,0.0,0.0,74,0.00,,,0.00,,2013-02-20 01:32:00,
2013-02-19 20:42:00,63.0,55.0,30.06,ESE,108,0.0,0.0,74,0.00,,,0.00,,2013-02-20 01:42:00,
2013-02-19 20:52:00,63.0,56.0,30.07,ESE,108,0.0,0.0,77,0.00,,,0.00,,2013-02-20 01:52:00,
2013-02-19 21:02:00,62.0,55.0,30.06,ESE,109,0.0,0.0,78,0.00,,,0.00,,2013-02-20 02:02:00,
2013-02-19 21:10:00,63.0,56.0,30.06,ESE,109,0.0,1.0,78,0.00,,,0.00,,2013-02-20 02:10:00,
2013-02-19 21:21:00,63.0,56.0,30.06,ESE,107,0.0,1.0,77,0.00,,,0.00,,2013-02-20 02:21:00,
2013-02-19 21:32:00,63.0,56.0,30.06,ESE,109,0.0,1.0,78,0.00,,,0.00,,2013-02-20 02:32:00,
2013-02-19 21:42:00,63.0,56.0,30.06,ESE,109,0.0,1.0,78,0.00,,,0.00,,2013-02-20 02:42:00,
2013-02-19 21:52:00,63.0,56.0,30.06,ESE,109,0.0,1.0,78,0.00,,,0.00,,2013-02-20 02:52:00,
2013-02-19 22:02:00,63.0,56.0,30.06,ESE,109,0.0,1.0,78,0.00,,,0.00,,2013-02-20 03:02:00,